Volver al catálogo

STARLINK-32124

ActivoComunicacionesVLEO
NORAD 60298·PAYLOAD·🇺🇸 United States

Lanzado Jul 28, 2024 desde Cape Canaveral Space Force Station

Loading…

Próximos Pases (próximas 24 horas)

TLE

ActualizadoSource: CelesTrak SupGP

Época: Sep 14, 2026, 21:12 UTC

1 60298C 24132W   26257.88381944  .00050476  00000+0  16233-2 0  2579
2 60298  53.1571 252.3294 0001187  97.9909 325.2495 15.31675129    17

Sigue STARLINK-32124 en tiempo real con AllMySat

Download on the App Store